Regional Weather Roundup
Issued by NWS

Home | Current Version | Previous Version | Text Only | Print | Product List | Glossary Off
Versions: 1 2 3 4 5 6 7 8 9 10 11 12 13 14 15 16 17 18 19 20 21 22 23 24 25 26 27 28 29 30 31 32 33 34 35 36 37 38 39 40 41 42 43 44 45 46 47 48 49 50

000
ASUS45 KSLC 291310
RWRUT

UTAH REGIONAL WEATHER ROUNDUP
NATIONAL WEATHER SERVICE SALT LAKE CITY UT
600 AM MST THU JAN 29 2015

UTZ001>011-023>025-291400-

NORTHERN UTAH

CITY           SKY/WX    TMP DP  RH WIND       PRES   REMARKS
BRIGHAM CITY   CLEAR     32  30  94 W3        30.37F
HILL AFB       CLEAR     37  31  82 S2        30.35F
LOGAN          CLOUDY    35  34  96 S3        30.40S FOG
OGDEN          CLEAR     32  32 100 W6        30.36S WCI  26
PROVO AIRPORT  CLEAR     28  27  93 CALM      30.36F
SALT LAKE CITY PTCLDY    31  30  96 S5        30.36F WCI  26
VERNAL         CLOUDY    34  28  79 W3        30.38R
WENDOVER       CLOUDY    36  30  80 CALM      30.37S
HEBER CITY     CLOUDY    28  28 100 CALM      30.38F
WEST JORDAN    CLEAR     30  30 100 NW3       30.36F

$$

UTZ012>022-026-027-291400-

SOUTHERN/CENTRAL UTAH

CITY           SKY/WX    TMP DP  RH WIND       PRES   REMARKS
BLANDING       MOCLDY    35  28  78 CALM      30.37S
BRYCE CANYON   CLOUDY    30  27  88 N6        30.31F WCI  24
CEDAR CITY     CLOUDY    33  30  88 S3        30.28S
DELTA          CLOUDY    32  31  96 N8        30.31F WCI  25
HANKSVILLE     CLOUDY    32  30  93 CALM      30.35R
MILFORD        CLOUDY    36  31  82 N9        30.30S WCI  29
MOAB/CYNLANDS  CLEAR     31  29  92 CALM      30.30F
PRICE          MOCLDY    40  27  59 VRB3      30.31F
ST GEORGE      SUNNY     46  37  71 N5        30.24R
KANAB            N/A     39  32  75 N5        30.30S

$$

REGIONAL REPORTS     COLORADO/ARIZONA

CITY           SKY/WX    TMP DP  RH WIND       PRES   REMARKS
CRAIG, CO      CLOUDY    32  29  88 CALM      30.40S
GRAND JUNCTION CLOUDY    33  27  78 SE8       30.34R WCI  26
RIFLE          PTCLDY    29  25  85 CALM      30.38S
MONTROSE       MOCLDY    29  24  82 S7        30.38R WCI  22
CORTEZ         CLEAR     28  26  92 E5        30.32R WCI  23
PAGE, AZ       NOT AVBL
GRAND CANYON   CLOUDY    41  28  60 E10       30.26F
KINGMAN        CLOUDY    47  42  83 NE5       30.15S
FLAGSTAFF      CLOUDY    34  27  75 E5        30.26F WCI  30

$$

REGIONAL REPORTS    NEVADA/IDAHO/WYOMING

CITY           SKY/WX    TMP DP  RH WIND       PRES   REMARKS
LAS VEGAS, NV  CLOUDY    54  43  66 W7        30.12F
ELY            MOCLDY    24  22  91 S6        30.31S WCI  17
ELKO           PTCLDY    26  24  92 CALM      30.32F
POCATELLO, ID  FOG       32  32 100 E3        30.44S VSB 1/2
BURLEY         CLOUDY    36  33  89 NE7       30.41S WCI  30
EVANSTON, WY   CLOUDY    29  26  89 E5        30.39S WCI  24
ROCK SPRINGS   MOCLDY    29  27  92 NE8       30.41S WCI  21

$$


USA.gov is the U.S. government's official web portal to all federal, state and local government web resources and services.